Regional Weather Roundup
Issued by NWS Nashville, TN

Home | Current Version | Previous Version | Text Only | Print | Product List | Glossary On
Versions: 1 2 3 4 5 6 7 8 9 10 11 12 13 14 15 16 17 18 19 20 21 22 23 24 25 26 27
000
ASUS44 KOHX 232010
RWROHX
MIDDLE TENNESSEE HOURLY WEATHER ROUNDUP
NATIONAL WEATHER SERVICE NASHVILLE TN
300 PM CDT SAT SEP 23 2017

NOTE: "FAIR" INDICATES FEW OR NO CLOUDS BELOW 12,000 FEET WITH
NO SIGNIFICANT WEATHER AND/OR OBSTRUCTIONS TO VISIBILITY.

* THESE REPORTS ARE NOT UNDER NWS QUALITY CONTROL AND MAY NOT
  REPORT WEATHER SUCH AS PRECIPITATION AND FOG.


TNZ005>011-023>034-057-059-062>066-078-080-232100
...NORTHERN MIDDLE TENNESSEE...

CITY           SKY/WX    TMP DP  RH WIND       PRES   REMARKS
CLARKSVILLE    MOSUNNY   89  65  44 E5        30.02F HX  91
CROSSVILLE     PTSUNNY   82  63  52 SE5       30.09F
GALLATIN       MOSUNNY   88  68  51 VRB3      30.04F HX  91
DICKSON        MOSUNNY   86  68  54 N5        30.03F
LEBANON        MOSUNNY   89  65  44 CALM      30.01F HX  90
NASHVILLE      MOSUNNY   89  67  47 E8        30.02F HX  92
PORTLAND       MOSUNNY   88  70  55 N5        30.03F HX  92
SMYRNA         MOSUNNY   88  66  48 N9        30.04F HX  90
SPARTA         PTSUNNY   86  68  54 VRB5      30.04F
SPRINGFIELD    PTSUNNY   86  68  54 NE5       30.01F
WEST NASHVILLE PTSUNNY   88  68  51 NE5       30.00F HX  91
$$
TNZ056-058-060-061-075>077-079-093>097-232100
...SOUTHERN MIDDLE TENNESSEE...

CITY           SKY/WX    TMP DP  RH WIND       PRES   REMARKS
COLUMBIA       SUNNY     86 N/A N/A E3        29.99F
FAYETTEVILLE   SUNNY     86  68  54 E3        30.02F
MCMINNVILLE    SUNNY     88  70  55 NE7       30.04F HX  92
PULASKI        MOSUNNY   91  68  46 VRB3      30.00F HX  95
SHELBYVILLE    SUNNY     88  66  48 NE6       30.01F HX  90
TULLAHOMA      MOSUNNY   86  63  45 E7        30.04F
WINCHESTER     SUNNY     82  70  65 SE5       30.03F
$$


...KEY TO REMARKS...
VSB - VISIBILITY IN MILES
WCI - WIND CHILL INDEX
HX  - HEAT INDEX





USA.gov is the U.S. government's official web portal to all federal, state and local government web resources and services.